Location: Kumla
(59.1265°N, 15.1401°E)
Time: 05:32:36
(UTC+01:00)

Vanguard 2 Rocket - Pass Details

Date: 03 December 2023
Orbit: 555 x 3309 km, 32.9° (Epoch: 03 March)

Event Time Altitude Azimuth Distance (km) Brightness Sun altitude
Rises 18:36:58 0° 254° (WSW) 7,257 12.8 -24.9°
Reaches altitude 10° 18:43:17 10° 243° (WSW) 6,263 12.0 -25.7°
Maximum altitude 18:56:52 24° 200° (SSW) 4,780 10.6 -27.5°
Drops below altitude 10° 19:08:10 10° 155° (SSE) 5,127 10.4 -28.9°
Enters shadow 19:09:32 - 151° (SSE) 5,287 10.5 -29.1°
Sets 19:12:38 0° 142° (SE) 5,728 - -29.5°
